Home > Weather > Toamasina > Past weeks

Flag for Madagascar Weather for the Past 2 Weeks in Toamasina, Madagascar

Now
72 °F

Passing clouds.


Feels Like: 67 °F
Forecast: 71 / 86 °F
Wind: No wind

Location: Tamatave

Current Time: May 4, 2016 at 12:05:14 AM

Latest Report: May 3, 2016 at 11:00 PM


Visibility: N/A

Pressure: 29.95 "Hg

Humidity: 94%

Dew Point: 70 °F

Location of ToamasinaLocation

Historic Weather in Toamasina — Graph

°F

Toamasina Temperature Yesterday

Maximum temperature yesterday: 86 °F (at 12:00 PM)
Minimum temperature yesterday: 70 °F (at 1:00 AM)
Average temperature yesterday: 77 °F

High & Low Weather Summary for the Past Weeks

 TemperatureHumidityPressure
High88 °F (Apr 29, 2:00 PM)100% (Apr 22, 5:00 AM)30.01 "Hg (Apr 22, 5:00 AM)
Low68 °F (May 1, 6:00 AM)55% (Apr 29, 12:00 PM)29.83 "Hg (Apr 20, 4:00 PM)
Average78 °F84%29.93 "Hg
* Reported Apr 18 11:00 PM — May 3 11:00 PM, Toamasina, Weather by CustomWeather, © 2016

Note: Actual official high and low records may vary slightly from our data, if they occured in-between our weather recording intervals... More about our weather records

Advertising

Toamasina Weather History for the Previous 24 Hours

Scroll right to see more
 ConditionsComfort  
Time TempWeatherWind HumidityBarometerVisibility
11:00 PM
Tue, May 3
72 °FPassing clouds.No wind94%29.95 "HgN/A
10:00 PM73 °FPassing clouds.No wind94%29.95 "HgN/A
9:00 PM73 °FPassing clouds.No wind94%29.95 "HgN/A
7:00 PM77 °FPassing clouds.No wind83%29.92 "HgN/A
6:00 PM81 °FPassing clouds.No wind84%29.92 "HgN/A
5:00 PM82 °FPassing clouds.5 mph79%29.92 "HgN/A
4:00 PM84 °FPassing clouds.9 mph79%29.89 "HgN/A
3:00 PM86 °FPassing clouds.12 mph75%29.89 "HgN/A
2:00 PM86 °FPassing clouds.12 mph66%29.89 "HgN/A
1:00 PM86 °FPassing clouds.9 mph66%29.92 "HgN/A
12:00 PM86 °FScattered clouds.7 mph62%29.92 "HgN/A
11:00 AM84 °FScattered clouds.2 mph66%29.95 "HgN/A
10:00 AM84 °FPartly sunny.5 mph66%29.98 "HgN/A
9:00 AM82 °FPassing clouds.7 mph74%29.98 "HgN/A
8:00 AM79 °FPassing clouds.5 mph84%29.98 "HgN/A
7:00 AM72 °FPassing clouds.No wind94%29.95 "HgN/A
6:00 AM72 °FScattered clouds.No wind94%29.92 "HgN/A
5:00 AM70 °FPassing clouds.No wind94%29.89 "HgN/A
4:00 AM70 °FPassing clouds.No wind94%29.89 "HgN/A
3:00 AM70 °FPassing clouds.No wind94%29.89 "HgN/A
2:00 AM70 °FPassing clouds.No wind94%29.89 "HgN/A
1:00 AM70 °FPassing clouds.No wind94%29.89 "HgN/A
12:00 AM72 °FPassing clouds.No wind94%29.92 "HgN/A
Weather by CustomWeather, © 2016

See weather overviewHow to use our weather pages